• MPC Preparation (Info)

  • MPEC 2023-H239 : 2022 YT10

    The following Minor Planet Electronic Circular may be linked-to from your own Web pages, but must not otherwise be redistributed electronically.

    A form allowing access to any MPEC is at the bottom of this page.


    Read MPEC 2023-H238 Read MPEC 2023-H240


    M.P.E.C. 2023-H239                               Issued 2023 April 29, 03:15 UT
    
         The Minor Planet Electronic Circulars contain information on unusual
             minor planets, routine data on comets and natural satellites,
             and occasional editorial announcements.  They are published
        on behalf of Division F of the International Astronomical Union by the
              Minor Planet Center, Smithsonian Astrophysical Observatory,
                              Cambridge, MA 02138, U.S.A.
    			  
                 Prepared using the Tamkin Foundation Computer Network
    
                                  MPC@CFA.HARVARD.EDU
                URL https://www.minorplanetcenter.net/    ISSN 1523-6714
    
                                    2022 YT10                                
    
    
    Observations:
         K22Y10T  C2022 11 01.58467307 23 01.390+52 22 15.88         21.62GVEH239F51
         K22Y10T  C2022 11 01.59858107 23 01.893+52 21 53.69         21.99GVEH239F51
         K22Y10T  C2022 11 17.60515607 22 17.092+45 00 56.38         21.67GVEH239F51
         K22Y10T  C2022 11 17.62537307 22 15.800+45 00 22.11         22.04GVEH239F51
         K22Y10T  C2022 11 17.63540907 22 15.165+45 00 04.89         21.70GVEH239F51
         K22Y10T*3C2022 12 20.89061 06 29 25.187+29 17 48.55         21.5 GqEH239095
         K22Y10T 3C2022 12 20.95850 06 29 18.167+29 16 02.92         21.5 GqEH239095
         K22Y10T 3C2022 12 22.96414 06 26 07.613+28 25 06.09         21.0 GqEH239095
         K22Y10T 3C2022 12 23.06010 06 25 58.295+28 22 40.80         21.0 GqEH239095
         K22Y10T 3C2022 12 23.79115 06 24 52.738+28 04 33.30         21.3 GqEH239095
         K22Y10T 3C2022 12 23.84288 06 24 47.747+28 03 16.92         21.3 GqEH239095
         K22Y10T 3C2022 12 28.83642 06 17 48.595+26 06 03.70         21.4 GqEH239095
         K22Y10T 3C2022 12 29.00083 06 17 35.210+26 02 23.79         21.4 GqEH239095
         K22Y10T 3C2022 12 29.93594 06 16 25.277+25 41 52.28         21.4 GqEH239095
         K22Y10T 3C2022 12 30.04331 06 16 16.915+25 39 31.21         21.4 GqEH239095
         K22Y10T 3C2022 12 30.89921 06 15 15.826+25 21 11.65         21.5 GqEH239095
         K22Y10T 3C2022 12 31.00146 06 15 08.146+25 18 59.58         21.5 GqEH239095
    
    Observer details:
    095 Crimea-Nauchnij.  Observer S. Nazarov.  Measurer A. Chernyshov.  0.35-m
        f/5 reflector + CCD.
    F51 Pan-STARRS 1, Haleakala.  Observers J. Bulger, K. Chambers, T. Lowe, A.
        Schultz, I. Smith.  Measurers S. Chastel, J. Fairlamb, M. Huber, Y.
        Ramanjooloo, R. Wainscoat, R. Weryk.  1.8-m Ritchey-Chretien + CCD.
    
    Orbital elements:
    2022 YT10                                                Earth MOID = 0.2652 AU
    Epoch 2023 Feb. 25.0 TT = JDT 2460000.5                 Veres                   
    M  32.13564              (2000.0)            P               Q                  
    n   0.21860265     Peri.  102.15747     +0.90091163     -0.37013796             
    a   2.7291816      Node   279.91026     +0.25110291     +0.87043142             
    e   0.5861561      Incl.   13.30011     +0.35398526     +0.32457207             
    P   4.51           H   21.78          G   0.15           U   5                  
    Residuals in seconds of arc
    221101 F51  0.2+  0.1-    221220 095  0.0   0.0     221229 095  0.4+  0.4-
    221101 F51  0.2-  0.1+    221222 095  0.2-  0.2+    221229 095  0.1+  0.4-
    221117 F51  0.2+  0.0     221223 095  0.1+  0.6+    221230 095  0.1-  0.2+
    221117 F51  0.1-  0.0     221223 095  0.5+  0.3+    221230 095  0.2-  0.7+
    221117 F51  0.1-  0.0     221223 095  0.5-  0.7-    221231 095  0.1+  0.1-
    221220 095  0.1+  0.5+    221228 095  0.2-  0.6-
    
    Ephemeris:
    2022 YT10                a,e,i = 2.73, 0.59, 13                  q = 1.1295
    Date    TT    R. A. (2000) Decl.     Delta      r    Elong.  Phase     V
    2023 03 30    06 54 44.0 +14 50 35   1.8952  2.2117    94.6    26.7    26.1
    ...
    2023 04 14    07 14 59.4 +14 12 12   2.1798  2.3172    84.9    25.5    26.5
    ...
    2023 04 22    07 26 12.6 +13 48 16   2.3321  2.3724    79.9    24.6    26.6
    ...
    2023 04 28    07 34 45.3 +13 28 21   2.4458  2.4132    76.2    23.9    26.8
    2023 04 29    07 36 11.2 +13 24 52   2.4647  2.4200    75.6    23.8    26.8
    2023 04 30    07 37 37.3 +13 21 20   2.4835  2.4267    75.0    23.6    26.8
    ...
    2023 05 06    07 46 15.4 +12 59 03   2.5960  2.4669    71.4    22.8    26.9
    ...
    2023 05 14    07 57 49.7 +12 26 29   2.7439  2.5198    66.6    21.6    27.0
    ...
    2023 05 29    08 19 35.0 +11 16 27   3.0121  2.6165    57.8    19.1    27.2
    
    M. P. C. Staff               (C) Copyright 2023 MPC           M.P.E.C. 2023-H239
    


    Read MPEC 2023-H238 Read MPEC 2023-H240


    MPEC number:

    Enter an MPEC number in one of the following forms:

    • 1997-B01 (the full form)
    • J97B01 (the packed version of the full form)
    • B01 (the abbreviated form)